map of FEZ home
Great Circle Mapper logo
FEZ - Airport
Location
City:  Fez, Morocco
Near (Alt.):Fes
Name:Sa´ss
ICAO / IATA:GMFF / FEZ

Details
Type:Airport (Aerodrome, Airfield)
Use:Public/Civil, International (customs port of entry)
Latitude:33░55'38"N (33.927261)
Longitude:4░58'41"W (-4.977957)
Datum:WGS 1984
Elevation:1900 ft (579 m)
Runways:1
Longest:10499 × 148 ft (3200 × 45 m), paved

Time
Time Zone:UTC+0 (DST+1)
Local Time:

Weather
METAR:GMFF 011100Z 04009KT 010V070 9999 FEW033 BKN230 24/06 Q1021 NOSIG
TAF:GMFF 011100Z 0112/0218 32012KT 9999 SCT033 BKN233 PROB 30
TEMPO 0 115/0118 SCT033 FEW040CB BKN233
BECMG 0121/0201 20006KT CAVOK
BECMG 0 209/0212 30010KT SCT030 SCT100

Related Locations
Nearby:
Farthest:KKE: 12322 mi / 19830 km
Kerikeri/Bay of Islands, NZ

Find:

   beyond  
but within

Other Information
Maps:
NOTAMs:
Links:
Sources:

  
flag of Morocco   

Sectional Chart

Flight Planning
at skyvector.com

Satellite Image

Google Maps Satellite View

 

Copyright © 2004-2014 Karl L. Swartz. All rights reserved.
The Great Circle Mapper name and logo are trademarks of the Great Circle Mapper.
All other trademarks mentioned herein belong to their respective owners.
Please see credits for attibutions and further copyright information.

  Follow gcmap on Facebook Follow gcmap on Twitter

hCard Microformat

Geo Microformat